Location: Boiro
(42.6475°N, 8.8834°W)
Time: 20:24:45
(UTC+01:00)

Vanguard 1 - Pass Details

Date: 07 December 2021
Orbit: 652 x 3830 km, 34.2° (Epoch: 19 January)

Event Time Altitude Azimuth Distance (km) Brightness Sun altitude
Rises 04:50:45 0° 275° (W) 7,872 - -43.5°
Reaches altitude 10° 04:56:09 10° 272° (W) 6,928 - -42.5°
Exits shadow 05:15:01 54° 231° (SW) 3,978 12.6 -39.1°
Maximum altitude 05:18:36 58° 202° (SSW) 3,698 12.6 -38.4°
Drops below altitude 10° 05:34:02 10° 128° (SE) 4,975 14.2 -35.6°
Sets 05:37:12 0° 124° (SE) 5,632 14.7 -35.0°
